W2EH Weather Reports


time (UTC)temp
F
wind
direction
speed
knots
gust
knots
rain 1hr
in
rain 24hr
in
rain mn
in
humidity
%
barometer
mb
20260506211556 61 135 0.0 1.7 0.00 0.00 0.00 82 1011.6
20260506211054 61 265 0.0 1.7 0.00 0.00 0.00 81 1011.8
20260506210550 61 323 1.7 3.5 0.00 0.00 0.00 82 1011.9
20260506210046 61 40 1.7 2.6 0.00 0.00 0.00 83 1011.8
20260506205543 61 260 0.0 0.9 0.00 0.00 0.00 82 1011.9
20260506205038 61 348 1.7 1.7 0.00 0.00 0.00 82 1011.7
20260506204537 61 107 0.9 2.6 0.00 0.00 0.00 82 1011.7
20260506204034 61 60 0.0 1.7 0.00 0.00 0.00 82 1011.8
20260506203532 61 344 0.0 2.6 0.00 0.00 0.00 81 1011.8
20260506203029 62 299 0.0 3.5 0.00 0.00 0.00 81 1011.7
20260506202526 62 5 2.6 2.6 0.00 0.00 0.00 82 1011.8
20260506202022 61 141 0.0 2.6 0.00 0.00 0.00 81 1011.7
20260506201520 62 358 2.6 2.6 0.00 0.00 0.00 81 1011.7
20260506201016 62 310 0.0 0.9 0.00 0.00 0.00 80 1011.8
20260506200512 63 269 0.0 2.6 0.00 0.00 0.00 79 1011.7
20260506200009 63 10 1.7 2.6 0.00 0.00 0.00 80 1011.5
20260506195506 63 159 1.7 3.5 0.00 0.00 0.00 80 1011.5
20260506195002 63 262 0.9 2.6 0.00 0.00 0.00 79 1011.6
20260506194459 63 334 0.0 2.6 0.00 0.00 0.00 78 1011.6
20260506193956 64 304 0.0 2.6 0.00 0.00 0.00 78 1011.7
20260506193454 64 318 1.7 2.6 0.00 0.00 0.00 79 1011.3
20260506192950 64 267 0.9 1.7 0.00 0.00 0.00 78 1011.6
20260506192447 65 269 0.0 2.6 0.00 0.00 0.00 79 1011.5
20260506191944 65 339 1.7 4.3 0.00 0.00 0.00 79 1011.6
20260506191440 66 37 1.7 2.6 0.00 0.00 0.00 80 1011.5
20260506190936 66 227 1.7 1.7 0.00 0.00 0.00 80 1011.6
20260506190434 66 250 0.0 1.7 0.00 0.00 0.00 79 1011.7
20260506185930 66 245 0.9 2.6 0.00 0.00 0.00 80 1011.5
20260506181158 70 335 1.7 1.7 0.00 0.00 0.00 75 1010.8
20260506180655 70 335 1.7 1.7 0.00 0.00 0.00 75 1010.8
20260506180151 70 335 1.7 1.7 0.00 0.00 0.00 75 1010.8
20260506175648 69 38 1.7 2.6 0.00 0.00 0.00 75 1011.0
20260506175145 69 21 1.7 3.5 0.00 0.00 0.00 76 1011.0
20260506174643 69 100 0.0 1.7 0.00 0.00 0.00 76 1010.6
20260506174139 69 346 1.7 2.6 0.00 0.00 0.00 75 1010.8
20260506173637 68 56 1.7 3.5 0.00 0.00 0.00 76 1010.6
20260506173133 68 264 0.9 1.7 0.00 0.00 0.00 77 1010.8
20260506172631 68 12 1.7 2.6 0.00 0.00 0.00 78 1011.1
20260506172127 68 94 1.7 1.7 0.00 0.00 0.00 77 1010.8
20260506171625 67 44 0.0 2.6 0.00 0.00 0.00 79 1011.0
20260506171122 66 347 2.6 2.6 0.00 0.00 0.00 79 1010.6
20260506170620 66 51 1.7 1.7 0.00 0.00 0.00 80 1010.3
20260506170117 66 346 0.9 2.6 0.00 0.00 0.00 79 1010.7
20260506165615 65 114 1.7 3.5 0.00 0.00 0.00 81 1011.0
20260506165111 65 45 1.7 2.6 0.00 0.00 0.00 80 1011.1
20260506164608 65 41 1.7 3.5 0.00 0.00 0.00 79 1011.0
20260506164106 65 224 1.7 2.6 0.00 0.00 0.00 82 1011.4
20260506163601 63 224 0.0 1.7 0.00 0.00 0.00 84 1011.2
20260506163057 63 18 0.9 2.6 0.00 0.00 0.00 85 1011.6
20260506162554 62 72 1.7 3.5 0.00 0.00 0.00 89 1012.0
20260506162051 60 124 1.7 1.7 0.00 0.00 0.00 91 1011.1
20260506161549 60 99 0.0 1.7 0.00 0.00 0.00 91 1011.5
20260506161045 60 145 0.0 2.6 0.00 0.00 0.00 91 1011.9
20260506160543 60 83 0.9 2.6 0.00 0.00 0.00 91 1012.2
20260506160039 60 212 0.0 4.3 0.00 0.00 0.00 91 1012.7
20260506155538 60 0 1.7 3.5 0.00 0.00 0.00 92 1012.6
20260506153709 61 248 0.0 1.7 0.00 0.00 0.00 92 1012.3
20260506153207 62 10 1.7 2.6 0.00 0.00 0.00 91 1012.1
20260506152703 62 252 0.0 2.6 0.00 0.00 0.00 91 1012.2
20260506152201 62 317 1.7 2.6 0.00 0.00 0.00 91 1012.1
20260506151700 63 7 1.7 2.6 0.00 0.00 0.00 91 1012.0
20260506151156 63 335 0.9 3.5 0.00 0.00 0.00 91 1011.6
20260506150652 63 22 1.7 3.5 0.00 0.00 0.00 91 1011.3
20260506150150 63 24 0.0 1.7 0.00 0.00 0.00 91 1010.8
20260506145646 64 196 0.9 2.6 0.00 0.00 0.00 91 1011.0
20260506145143 64 9 2.6 2.6 0.00 0.00 0.00 90 1010.8
20260506144641 64 84 0.0 1.7 0.00 0.00 0.00 90 1010.4
20260506144137 65 347 1.7 2.6 0.00 0.00 0.00 89 1010.2
20260506143635 66 330 1.7 2.6 0.00 0.00 0.00 89 1010.2
20260506143133 67 167 0.0 1.7 0.00 0.00 0.00 90 1010.3
20260506142631 67 267 1.7 2.6 0.00 0.00 0.00 90 1010.2
20260506142129 68 292 1.7 1.7 0.00 0.00 0.00 88 1009.8
20260506141626 68 293 0.9 1.7 0.00 0.00 0.00 89 1009.6
20260506141124 69 357 0.0 1.7 0.00 0.00 0.00 89 1009.4
20260506140621 69 50 0.0 1.7 0.00 0.00 0.00 88 1009.6
20260506140119 71 279 0.0 2.6 0.00 0.00 0.00 86 1009.5
20260506135615 73 19 1.7 2.6 0.00 0.00 0.00 85 1009.6
20260506135112 75 332 0.9 2.6 0.00 0.00 0.00 91 1009.2
20260506134608 75 62 0.0 0.9 0.00 0.00 0.00 92 1009.0
20260506134104 75 48 0.0 1.7 0.00 0.00 0.00 92 1008.5
20260506133602 75 76 0.0 1.7 0.00 0.00 0.00 93 1008.5
20260506133059 75 50 0.0 0.0 0.00 0.00 0.00 93 1008.8
20260506132556 74 147 0.0 0.9 0.00 0.00 0.00 93 1008.9
20260506132053 74 38 0.0 1.7 0.00 0.00 0.00 94 1008.6
20260506131550 74 99 0.0 1.7 0.00 0.00 0.00 94 1008.7
20260506131046 74 89 0.0 0.9 0.00 0.00 0.00 95 1008.5
20260506130543 74 101 0.0 1.7 0.00 0.00 0.00 95 1008.3
20260506130041 74 35 0.9 1.7 0.00 0.00 0.00 95 1008.4
20260506125539 74 55 0.0 0.9 0.00 0.00 0.00 95 1008.5
20260506125036 73 89 0.0 0.9 0.00 0.00 0.00 95 1008.3
20260506124534 73 88 0.0 0.9 0.00 0.00 0.00 95 1008.3
20260506124031 73 68 0.0 0.9 0.00 0.00 0.00 95 1007.9
20260506123529 72 44 0.0 0.9 0.00 0.00 0.00 95 1008.1
20260506123027 72 56 0.0 0.9 0.00 0.00 0.00 95 1008.1
20260506122524 72 57 0.0 0.9 0.00 0.00 0.00 95 1008.2
20260506122022 72 81 0.0 1.7 0.00 0.00 0.00 94 1007.9
20260506121519 72 60 0.9 0.9 0.00 0.00 0.00 94 1008.1
20260506121015 72 41 0.0 0.9 0.00 0.00 0.00 94 1008.3
20260506120513 72 99 0.0 0.9 0.00 0.00 0.00 94 1007.9
20260506120010 72 71 0.0 0.9 0.00 0.00 0.00 94 1008.0
20260506115508 72 89 0.0 0.9 0.00 0.00 0.00 93 1008.1
20260506115007 72 55 0.9 1.7 0.00 0.00 0.00 93 1007.9
20260506114503 72 44 1.7 1.7 0.00 0.00 0.00 93 1008.0
20260506114002 73 46 0.0 1.7 0.00 0.00 0.00 93 1008.0
20260506113459 73 128 0.9 1.7 0.00 0.00 0.00 93 1007.9
20260506112956 73 89 0.0 1.7 0.00 0.00 0.00 92 1008.0
20260506112453 73 116 0.9 0.9 0.00 0.00 0.00 92 1008.0
20260506111950 73 137 0.0 1.7 0.00 0.00 0.00 92 1008.1
20260506111448 74 37 0.0 1.7 0.00 0.00 0.00 92 1007.9
20260506110945 74 89 0.0 0.9 0.00 0.00 0.00 92 1008.0
20260506110443 74 107 0.9 0.9 0.00 0.00 0.00 92 1007.9
20260506105939 74 96 0.9 1.7 0.00 0.00 0.00 92 1007.9
20260506105436 74 117 0.0 0.9 0.00 0.00 0.00 92 1008.1
20260506104933 75 103 0.9 0.9 0.00 0.00 0.00 91 1007.9
20260506104431 75 212 0.0 0.0 0.00 0.00 0.00 91 1008.0
20260506103929 75 147 0.0 0.9 0.00 0.00 0.00 91 1007.9
20260506103427 75 157 0.0 0.9 0.00 0.00 0.00 90 1007.8
20260506102923 75 142 0.9 1.7 0.00 0.00 0.00 90 1007.8
20260506102421 75 131 1.7 1.7 0.00 0.00 0.00 90 1007.7
20260506101918 75 132 0.9 1.7 0.00 0.00 0.00 90 1007.6
20260506101414 75 127 1.7 1.7 0.00 0.00 0.00 90 1007.8
20260506100912 75 160 0.9 2.6 0.00 0.00 0.00 90 1007.5
20260506100410 75 104 0.9 4.3 0.00 0.00 0.00 90 1007.4
20260506095908 75 116 0.9 1.7 0.00 0.00 0.00 90 1007.3
20260506095406 75 133 0.9 1.7 0.00 0.00 0.00 90 1007.4
20260506094902 75 138 1.7 1.7 0.00 0.00 0.00 91 1007.3
20260506094401 75 190 0.9 1.7 0.00 0.00 0.00 91 1007.3
20260506093858 75 118 0.9 1.7 0.00 0.00 0.00 91 1007.3
20260506093355 75 118 0.9 1.7 0.00 0.00 0.00 91 1007.3
20260506092853 75 124 0.0 1.7 0.00 0.00 0.00 91 1007.1
20260506092351 75 119 1.7 1.7 0.00 0.00 0.00 91 1007.0
20260506091847 75 122 0.9 1.7 0.00 0.00 0.00 90 1007.2
20260506091345 75 113 1.7 1.7 0.00 0.00 0.00 90 1007.1
20260506090842 75 126 1.7 1.7 0.00 0.00 0.00 89 1007.0
20260506090340 75 128 1.7 1.7 0.00 0.00 0.00 89 1007.0
20260506085836 75 124 0.0 1.7 0.00 0.00 0.00 88 1006.9
20260506085332 75 124 0.0 0.9 0.00 0.00 0.00 88 1006.9
20260506084829 75 110 1.7 1.7 0.00 0.00 0.00 88 1006.9
20260506084326 75 105 0.9 1.7 0.00 0.00 0.00 88 1006.9
20260506083822 75 117 0.0 1.7 0.00 0.00 0.00 88 1007.0
20260506083320 75 133 0.9 0.9 0.00 0.00 0.00 87 1006.9
20260506082818 75 120 0.9 1.7 0.00 0.00 0.00 87 1006.8
20260506082314 75 101 1.7 2.6 0.00 0.00 0.00 87 1006.9
20260506081810 75 126 1.7 2.6 0.00 0.00 0.00 87 1006.9
20260506081308 75 152 0.9 1.7 0.00 0.00 0.00 87 1006.9
20260506080806 76 115 0.0 1.7 0.00 0.00 0.00 87 1007.0
20260506080302 76 106 0.9 3.5 0.00 0.00 0.00 87 1007.1
20260506073246 76 149 2.6 5.2 0.00 0.00 0.00 86 1007.0
20260506072743 76 167 1.7 7.0 0.00 0.00 0.00 86 1006.9
20260506072240 76 145 2.6 7.8 0.00 0.00 0.00 86 1007.0
20260506071738 76 133 4.3 5.2 0.00 0.00 0.00 86 1007.1
20260506071236 76 118 1.7 5.2 0.00 0.00 0.00 86 1007.5
20260506070732 76 143 2.6 5.2 0.00 0.00 0.00 86 1007.0
20260506070229 76 129 3.5 4.3 0.00 0.00 0.00 87 1007.1
20260506062206 76 145 4.3 4.3 0.00 0.00 0.00 87 1007.0
20260506061702 76 150 2.6 4.3 0.00 0.00 0.00 87 1007.3
20260506061200 76 150 0.9 5.2 0.00 0.00 0.00 87 1007.0
20260506060658 76 132 1.7 4.3 0.00 0.00 0.00 87 1006.9
20260506060155 76 146 4.3 5.2 0.00 0.00 0.00 87 1006.8
20260506051127 76 116 0.9 2.6 0.00 0.00 0.00 87 1007.1
20260506050625 76 166 1.7 3.5 0.00 0.00 0.00 87 1007.2
20260506050122 76 140 3.5 4.3 0.00 0.00 0.00 87 1007.1
20260506045115 76 101 0.9 1.7 0.00 0.00 0.00 87 1007.0
20260506044613 76 161 1.7 5.2 0.00 0.00 0.00 87 1007.0
20260506044110 76 122 0.9 1.7 0.00 0.00 0.00 87 1007.1
20260506043607 76 145 1.7 2.6 0.00 0.00 0.00 87 1007.1
20260506043105 76 143 1.7 2.6 0.00 0.00 0.00 87 1007.0
20260506042604 76 84 0.0 2.6 0.00 0.00 0.00 87 1007.1
20260506042101 76 156 0.0 2.6 0.00 0.00 0.00 86 1006.9
20260506041600 76 142 1.7 3.5 0.00 0.00 0.00 86 1006.9
20260506041056 76 115 1.7 5.2 0.00 0.00 0.00 86 1006.9
20260506040554 76 135 1.7 3.5 0.00 0.00 0.00 86 1006.6
20260506040050 76 126 1.7 2.6 0.00 0.00 0.00 86 1006.6
20260506035548 77 141 1.7 3.5 0.00 0.00 0.00 86 1006.8
20260506035044 77 123 0.9 3.5 0.00 0.00 0.00 86 1006.6
20260506034541 77 133 1.7 2.6 0.00 0.00 0.00 85 1006.5
20260506034038 77 129 1.7 3.5 0.00 0.00 0.00 85 1006.5
20260506033536 77 137 0.9 3.5 0.00 0.00 0.00 85 1006.3
20260506033032 77 141 2.6 3.5 0.00 0.00 0.00 84 1006.4
20260506032530 77 149 3.5 3.5 0.00 0.00 0.00 84 1006.4
20260506032026 77 137 1.7 2.6 0.00 0.00 0.00 84 1006.3
20260506031524 77 124 2.6 3.5 0.00 0.00 0.00 83 1006.3
20260506031021 77 122 1.7 2.6 0.00 0.00 0.00 83 1006.1
20260506030519 77 148 0.0 2.6 0.00 0.00 0.00 83 1005.9
20260506030016 77 119 1.7 2.6 0.00 0.00 0.00 82 1005.9
20260506025513 78 107 0.9 1.7 0.00 0.00 0.00 82 1005.9
20260506025009 78 144 1.7 2.6 0.00 0.00 0.00 81 1005.9
20260506024506 78 128 1.7 1.7 0.00 0.00 0.00 81 1006.0
20260506024002 78 121 1.7 1.7 0.00 0.00 0.00 81 1005.7
20260506023458 78 97 0.0 0.9 0.00 0.00 0.00 81 1005.7
20260506022955 78 109 0.9 1.7 0.00 0.00 0.00 80 1005.4
20260506022453 78 140 3.5 3.5 0.00 0.00 0.00 80 1005.4
20260506021951 78 134 1.7 2.6 0.00 0.00 0.00 81 1005.2
20260506021448 78 128 0.9 1.7 0.00 0.00 0.00 81 1005.3
20260506020945 78 139 1.7 1.7 0.00 0.00 0.00 81 1005.2
20260506020443 78 121 0.0 1.7 0.00 0.00 0.00 80 1005.2
20260506015940 78 129 0.9 1.7 0.00 0.00 0.00 80 1005.3
20260506015437 78 121 0.9 1.7 0.00 0.00 0.00 80 1005.3
20260506014934 78 136 1.7 1.7 0.00 0.00 0.00 80 1004.9
20260506014431 78 116 0.9 1.7 0.00 0.00 0.00 79 1004.9
20260506013927 78 142 0.9 2.6 0.00 0.00 0.00 79 1004.9
20260506013426 79 141 0.0 1.7 0.00 0.00 0.00 78 1004.9
20260506012921 79 108 0.9 1.7 0.00 0.00 0.00 78 1004.9
20260506012418 80 114 0.9 2.6 0.00 0.00 0.00 77 1004.8
20260506011915 80 124 0.9 1.7 0.00 0.00 0.00 76 1004.8
20260506011412 80 116 1.7 2.6 0.00 0.00 0.00 76 1004.5
20260506010909 80 131 0.0 3.5 0.00 0.00 0.00 75 1004.7
20260506010408 80 114 1.7 1.7 0.00 0.00 0.00 75 1004.8
20260506005904 81 126 1.7 1.7 0.00 0.00 0.00 74 1004.7
20260506005402 81 157 1.7 2.6 0.00 0.00 0.00 73 1004.7
20260506004856 81 130 0.0 2.6 0.00 0.00 0.00 73 1004.7
20260506004355 82 182 0.0 3.5 0.00 0.00 0.00 72 1004.6
20260506003851 82 146 1.7 2.6 0.00 0.00 0.00 73 1004.7
20260506003347 82 130 1.7 2.6 0.00 0.00 0.00 72 1004.5
20260506002843 82 145 1.7 1.7 0.00 0.00 0.00 72 1004.7
20260506002340 82 160 1.7 3.5 0.00 0.00 0.00 71 1004.7
20260506001835 82 144 0.9 2.6 0.00 0.00 0.00 71 1004.6
20260506001333 82 134 1.7 2.6 0.00 0.00 0.00 72 1004.6
20260506000830 82 142 1.7 2.6 0.00 0.00 0.00 71 1004.8
20260506000329 82 109 0.0 2.6 0.00 0.00 0.00 71 1004.8
20260505235824 82 139 1.7 2.6 0.00 0.00 0.00 71 1004.6
20260505235322 82 134 2.6 2.6 0.00 0.00 0.00 70 1004.8
20260505234818 82 146 3.5 3.5 0.00 0.00 0.00 70 1005.0
20260505234316 82 107 0.9 3.5 0.00 0.00 0.00 71 1004.8
20260505233813 82 188 0.9 3.5 0.00 0.00 0.00 70 1004.6
20260505233311 82 187 1.7 2.6 0.00 0.00 0.00 70 1004.6
20260505232808 82 165 2.6 2.6 0.00 0.00 0.00 69 1004.5
20260505232306 83 174 1.7 2.6 0.00 0.00 0.00 69 1004.6
20260505231802 83 148 2.6 3.5 0.00 0.00 0.00 69 1004.6
20260505231300 83 112 0.9 3.5 0.00 0.00 0.00 68 1004.4
20260505230758 83 132 1.7 3.5 0.00 0.00 0.00 68 1004.2
20260505230255 83 143 0.9 3.5 0.00 0.00 0.00 69 1004.2
20260505225751 83 142 1.7 3.5 0.00 0.00 0.00 68 1004.1
20260505225249 83 134 3.5 3.5 0.00 0.00 0.00 68 1004.2
20260505224743 83 160 0.9 2.6 0.00 0.00 0.00 68 1004.0
20260505224241 83 213 1.7 3.5 0.00 0.00 0.00 68 1004.1
20260505223739 83 149 1.7 2.6 0.00 0.00 0.00 68 1004.1
20260505223235 83 141 2.6 6.1 0.00 0.00 0.00 68 1004.3
20260505222731 83 134 0.0 5.2 0.00 0.00 0.00 66 1004.2
20260505222227 84 199 1.7 5.2 0.00 0.00 0.00 67 1004.2
20260505221725 84 151 1.7 5.2 0.00 0.00 0.00 68 1004.1
20260505221221 84 185 2.6 2.6 0.00 0.00 0.00 67 1004.0
20260505220718 84 180 0.9 5.2 0.00 0.00 0.00 67 1004.0
20260505220216 84 172 0.9 6.1 0.00 0.00 0.00 67 1004.0
20260505215714 84 149 2.6 4.3 0.00 0.00 0.00 66 1004.3
20260505215211 85 151 3.5 5.2 0.00 0.00 0.00 66 1004.4
20260505214709 85 140 1.7 6.1 0.00 0.00 0.00 66 1004.4
20260505214206 85 164 1.7 4.3 0.00 0.00 0.00 67 1004.5
20260505213703 85 140 2.6 4.3 0.00 0.00 0.00 66 1004.7
20260505213201 85 126 1.7 3.5 0.00 0.00 0.00 67 1004.3
20260505212656 85 125 2.6 4.3 0.00 0.00 0.00 65 1004.6
20260505212154 86 145 5.2 5.2 0.00 0.00 0.00 66 1004.8
20260505211650 85 170 1.7 3.5 0.00 0.00 0.00 65 1004.7